Location: *
(51.8167°N, 12.5000°E)
Time: 00:47:16
(UTC+00:00)

Cosmos 1461 - Pass Details

Date: 16 September 2019
Orbit: 525 x 643 km, 65.0° (Epoch: 20 October)

Event Time Altitude Azimuth Distance (km) Brightness Sun altitude
Rises 17:57:35 0° 183° (S) 2,685 6.2 -6.1°
Reaches altitude 10° 18:00:07 10° 169° (SSE) 1,784 5.2 -6.5°
Maximum altitude 18:03:14 22° 117° (ESE) 1,188 4.0 -6.9°
Drops below altitude 10° 18:06:19 10° 66° (ENE) 1,775 4.9 -7.4°
Sets 18:08:50 0° 51° (NE) 2,668 6.0 -7.8°
